Content
SEND FEEDBACK

Daily
Averages
Monthly
Summary
United States of America

HOWELL, WYOMING


Home > North America > United States > Wyoming
Elevation: 7263 feet     Latitude: 41 19N     Longitude: 105 41W

WEATHER
 
SELECT A DAY
Number of Records: 196,543;   Date Range: 1/1/95 - 10/22/14
 
SHARE

PRINT THIS DATA

[ ← Previous Day ]
WEATHER ALMANAC - JANUARY 23, 2013
[ Next Day → ]
[ °C ]   °F
Weather ElementAverageHighLow
Temperature39.6 °F48 °F (12:53 pm)28.9 °F (1:53 am)
Dewpoint9.4 °F17.1 °F (2:53 pm)1.9 °F (1:53 am)
Humidity29.1 %38 % (5:53 pm)22 % (4:53 pm)
Barometer30.12 in30.23 in (8:53 am)30.02 in (11:53 pm)
Wind Speed18.4 mph31.1 mph (5:53 am)
Wind Gust34.5 mph (4:53 am)
Weather ElementAverage
Visibility10 mi
Wind DirectionWSW (233.5 °)

Weather ElementTotal
Precipitation---
Heating Degree Days26.6 (Base 65)
Averaged from 23 records on January 23, 2013
WEATHER CONDITIONS BREAKOUT
WIND DIRECTION BREAKOUT
WEATHER BY HOUR - JANUARY 23, 2013
[ °C ]   °F
Local TimeTemperatureDewpointHumidityBarometerVisibilityWind DirectionWind SpeedGust SpeedPrecipitationEventsConditions
1:53 AM28.9 °F1.9 °F32 %30.14 in10.0 miWest (260°)9.2 mphClear
2:53 AM30.0 °F3.0 °F32 %30.14 in10.0 miWest (260°)17.3 mphClear
3:53 AM28.9 °F3.0 °F33 %30.15 in10.0 miWest (260°)15.0 mphClear
4:53 AM35.1 °F3.9 °F27 %30.13 in10.0 miWSW (240°)29.9 mph34.5 mphClear
5:53 AM35.1 °F3.9 °F27 %30.13 in10.0 miWSW (240°)31.1 mphClear
6:53 AM35.1 °F5.0 °F28 %30.18 in10.0 miSW (230°)26.5 mph34.5 mphClear
7:53 AM34.0 °F7.0 °F32 %30.17 in10.0 miSW (220°)21.9 mphClear
8:53 AM37.0 °F9.0 °F31 %30.23 in10.0 miSW (230°)17.3 mphClear
9:53 AM39.0 °F10.9 °F32 %30.22 in10.0 miSW (230°)20.7 mphClear
10:53 AM43.0 °F12.9 °F30 %30.14 in10.0 miSW (220°)21.9 mphClear
11:53 AM46.0 °F14.0 °F28 %30.10 in10.0 miSW (230°)21.9 mphClear
12:53 PM48.0 °F14.0 °F26 %30.06 in10.0 miSW (220°)18.4 mphClear
1:53 PM48.0 °F14.0 °F26 %30.07 in10.0 miWSW (240°)17.3 mphClear
2:53 PM46.0 °F17.1 °F31 %30.10 in10.0 miSW (230°)6.9 mphClear
3:53 PM45.0 °F14.0 °F29 %30.13 in10.0 miSW (230°)13.8 mphClear
4:53 PM46.0 °F9.0 °F22 %30.09 in10.0 miWest (260°)10.4 mph17.3 mphClear
5:53 PM39.0 °F15.1 °F38 %30.13 in10.0 miSSW (210°)13.8 mphClear
6:53 PM43.0 °F9.0 °F25 %30.09 in10.0 miSSW (200°)15.0 mphClear
7:53 PM42.1 °F10.0 °F27 %30.09 in10.0 miSW (230°)18.4 mph23.0 mphClear
8:09 PM42.8 °F10.4 °F27 %30.16 in10.0 miWSW (240°)21.9 mphClear
8:53 PM41.0 °F10.0 °F28 %30.09 in10.0 miWSW (240°)18.4 mphClear
10:53 PM39.0 °F9.0 °F29 %30.05 in10.0 miSW (230°)15.0 mph23.0 mphClear
11:53 PM39.0 °F9.0 °F29 %30.02 in10.0 miSW (220°)20.7 mph33.4 mphClear
Hourly data recorded from KLAR, located miles away from Howell, Wyoming







STORIES FROM OUR PARTNERS